sat.trackr.live / text

‹ back to catalog

STARLINK-32510

NORAD 62040 · 2024-216J

PAYLOAD ACTIVE UNKNOWN

§ Identity

Operator
Country
US
Launch date
2024-11-21
Launch site
AFETR
Launch vehicle
Mass (kg)
RCS (m²)

Purposes: comms

External: N2YO · Heavens-Above · Gunter

§ Orbital elements

Epoch: 2026-05-25T03:50:00.060288Z

Period
94.27 min
Inclination
42.9972°
Eccentricity
0.0000816
Mean motion
15.27572670 rev/d
Perigee alt
482.5 km
Apogee alt
483.6 km
Semi-major
6,861.2 km
B*
2.9007e-4
RAAN
191.9927°
Arg perigee
281.7956°
Mean anomaly
78.2804°
Rev number
8,548

§ Raw data

STARLINK-325101 62040U 24216J   26145.15972292  .00007727  00000+0  29007-3 0  99952 62040  42.9972 191.9927 0000816 281.7956  78.2804 15.27572670 85484

JSON: /api/v1/satellites/62040 · /tle

For live sub-satellite position, see the globe view (requires WebGL).

§ Visibility from observer

Set your observer location to see the next 7 days of passes ≥ 10°. The values pass through the URL so the page stays shareable.

No JS? Fill the form by hand. The geolocation button needs JavaScript.